Regional Weather Roundup
Issued by NWS

Home | Current Version | Previous Version | Graphics & Text | Print | Product List | Glossary On
Versions: 1 2 3 4 5 6 7 8 9 10 11 12 13 14 15 16 17 18 19 20 21 22 23 24 25 26 27 28 29 30 31 32 33 34 35 36 37 38 39 40 41 42 43 44 45 46 47 48 49 50
735
ASUS43 KOAX 261910
RWRNE

WEATHER ROUNDUP FOR NEBRASKA
NATIONAL WEATHER SERVICE OMAHA NE
200 PM CDT FRI AUG 26 2016

NOTES: SATELLITE DATA IS BEING USED TO AUGMENT CLOUD COVER ABOVE
       12000 FEET.
       "FAIR" INDICATES FEW OR NO CLOUDS BELOW 12,000 FEET WITH NO
       SIGNIFICANT WEATHER AND/OR OBSTRUCTIONS TO VISIBILITY.

  * THESE STATIONS DO NOT REPORT WEATHER SUCH AS RAIN...SNOW OR FOG.

NEZ001>004-019>022-054>056-262000-
NEBRASKA PANHANDLE

CITY           SKY/WX    TMP DP  RH WIND       PRES   REMARKS
SCOTTSBLUFF    PTSUNNY   70  57  63 E10G23    30.10F
ALLIANCE       CLOUDY    63  56  78 S10       30.12F
CHADRON        CLOUDY    67  54  63 S7        30.08F
KIMBALL        MOSUNNY   66  57  73 S10       30.14F
SIDNEY         CLOUDY    61  54  77 E5        30.14F
$$

NEZ057>060-069>072-079>082-262000-
SOUTHWEST NEBRASKA

CITY           SKY/WX    TMP DP  RH WIND       PRES   REMARKS
NORTH PLATTE   MOSUNNY   77  56  48 E15       30.09F
IMPERIAL       LGT RAIN  70  54  56 SW5       30.10F
LEXINGTON      CLOUDY    71  55  56 E7        30.11F
MCCOOK         PTSUNNY   73  54  51 VRB7      30.09F
OGALLALA       CLOUDY    67  55  64 CALM      30.11S
$$

NEZ005>010-023>029-035>040-094-262000-
NORTH CENTRAL NEBRASKA

CITY           SKY/WX    TMP DP  RH WIND       PRES   REMARKS
VALENTINE      CLOUDY    69  51  52 SW5       30.14R
AINSWORTH      MOSUNNY   71  53  53 SE6       30.12F
BROKEN BOW     CLOUDY    70  55  59 SE8       30.12S
O`NEILL        CLOUDY    74  50  42 SE6       30.13S
ORD            CLOUDY    73  52  47 E7        30.10F
THEDFORD       CLOUDY    72  51  47 S8G16     30.13S
$$

NEZ041-046>049-061>064-073>077-083>087-262000-
SOUTH CENTRAL NEBRASKA

CITY           SKY/WX    TMP DP  RH WIND       PRES   REMARKS
GRAND ISLAND   CLOUDY    72  57  59 SE13      30.11S
AURORA         CLOUDY    71  61  71 E8        30.09F
HASTINGS       CLOUDY    72  57  59 E9        30.10F
HEBRON         CLOUDY    66  64  93 E5        30.09R
HOLDREGE       CLOUDY    69  57  64 E8        30.10F
KEARNEY *      CLOUDY    72  57  60 E10       30.09F
YORK           LGT RAIN  70  61  73 E12       30.10F
$$

NEZ011>018-030>034-042>045-262000-
NORTHEAST NEBRASKA

CITY           SKY/WX    TMP DP  RH WIND       PRES   REMARKS
NORFOLK        CLOUDY    71  58  63 E10G18    30.12S
ALBION         CLOUDY    71  58  64 SE9       30.12S
BLAIR          CLOUDY    68  61  77 SE9       30.11F
FREMONT        PTSUNNY   69  61  76 SE10      30.12F
TEKAMAH        CLOUDY    70  62  76 SE13      30.13R
WAYNE          CLOUDY    71  62  72 SE8       30.13F
$$

NEZ050>053-065>068-078-088>093-262000-
SOUTHEAST NEBRASKA

CITY           SKY/WX    TMP DP  RH WIND       PRES   REMARKS
LINCOLN        CLOUDY    68  61  77 E10       30.11F
OMAHA EPPLEY   LGT RAIN  68  61  78 SE7       30.12F
BEATRICE       CLOUDY    68  64  89 SE10      30.09S
FALLS CITY     CLOUDY    71  68  90 E6        30.08F
NEBRASKA CITY  CLOUDY    68  64  87 SE8       30.10F
PLATTSMOUTH    CLOUDY    70  62  76 E8        30.11F
$$

NEZ044-045-051>053-067-262000-
OMAHA AREA

CITY           SKY/WX    TMP DP  RH WIND       PRES   REMARKS
OMAHA EPPLEY   LGT RAIN  68  61  78 SE7       30.12F
BLAIR          CLOUDY    68  61  77 SE9       30.11F
FREMONT        PTSUNNY   69  61  76 SE10      30.12F
MILLARD        DRIZZLE   67  61  80 E6        30.11F
OFFUTT AFB     CLOUDY    69  62  81 NE5       30.11F
PLATTSMOUTH    CLOUDY    70  62  76 E8        30.11F
WAHOO          FAIR      69  61  77 SE7       30.11F
$$




USA.gov is the U.S. government's official web portal to all federal, state and local government web resources and services.